Location: Fenwick Island
(38.4623°N, 75.0513°W)
Time: 05:50:56
(UTC+00:00)

Daily predictions for brighter satellites

Satellite Brightness Start Highest point End
(mag) Time Altitude Azimuth Time Altitude Azimuth Time Altitude Azimuth
Gbstr 26 Del rocket 4.3 00:03:13 10° WSW 00:05:34 33° WSW 00:05:34 33° WSW
Cosmos 1607 3.8 00:01:55 10° NNW 00:08:12 83° ENE 00:08:21 82° E
Cosmos 1697 Rocket 3.2 00:06:43 10° SW 00:12:11 55° WNW 00:13:23 46° NNW
BREEZE-M DEB (TANK) 3.3 00:07:11 10° SW 00:15:42 82° SSW 00:15:42 82° SSW
BREEZE-M DEB (TANK) 4.1 00:10:43 10° SW 00:17:53 58° SSW 00:17:53 58° SSW
BREEZE-M DEB (TANK) 4.3 00:19:37 10° NW 00:23:52 54° NNE 00:23:52 54° NNE
Cosmos 1655 Rocket 4.4 00:18:25 10° NNW 00:24:31 59° W 00:30:35 10° S
Cosmos 2297 Rocket 4.1 00:44:03 10° NW 00:48:41 26° WSW 00:53:18 10° SSW
CZ-4C R/B 3.3 00:52:28 10° NW 00:59:10 65° W 00:59:10 65° W
Cosmos 1980 Rocket 4.4 01:07:21 10° SW 01:09:03 19° WSW 01:09:03 19° WSW
CZ-3 R/B 4.1 06:46:56 10° WSW 07:40:02 62° S 07:50:58 10° ESE
Cosmos 1697 Rocket 3.5 09:07:47 49° E 09:07:47 49° E 09:12:31 10° SE
USA 238 DEB 4.0 09:06:46 70° N 09:07:32 76° NE 09:15:42 10° SE
USA 238 4.0 09:06:48 69° N 09:07:39 75° NE 09:15:49 10° SE
Atlas Centaur 2 4.2 09:27:36 24° SSW 09:27:36 24° SSW 09:33:44 10° SSE
Cosmos 2082 Rocket 3.0 09:32:49 10° S 09:38:13 49° ESE 09:43:35 10° NE
FengYun 1-2 T 4.3 09:35:28 10° NNE 09:41:08 76° ESE 09:46:46 10° S
Cosmos 1634 Rocket 3.8 09:41:04 66° NW 09:41:47 74° W 09:47:56 10° S
Cosmos 1536 Rocket 4.3 09:39:11 10° S 09:43:29 51° E 09:47:46 10° NNE
Cosmos 2098 Rocket 3.7 09:55:01 12° N 10:00:16 85° E 10:06:05 10° S
SL-8 R/B 4.0 10:01:43 47° NNW 10:02:35 55° NNE 10:07:15 10° ESE
Cosmos 2279 Rocket 3.9 09:56:49 11° N 10:02:47 74° W 10:09:00 10° S
Cosmos 990 Rocket 3.8 10:04:28 39° NNW 10:06:26 80° WSW 10:11:39 10° SSE
Cosmos 1980 Rocket 2.3 10:04:01 23° NNW 10:07:36 74° ENE 10:13:10 10° SSE
SL-24 R/B - RUBIN 2 4.4 10:06:39 28° N 10:08:33 46° NE 10:12:46 10° SE
Cosmos 2180 Rocket 4.5 10:03:48 10° N 10:10:05 88° E 10:16:25 10° S
BREEZE M DEB (TANK) 3.9 10:13:53 13° S 10:14:59 17° SE 10:16:44 10° E
Tiangong -1.3 10:16:27 44° NNE 10:16:27 44° NNE 10:19:14 10° ENE
PKM 3.7 10:16:37 52° N 10:16:57 57° NE 10:19:32 10° ESE
Cosmos 1346 Rocket 2.5 10:20:44 10° S 10:24:24 84° E 10:28:07 10° N
Cosmos 540 Rocket 4.5 10:25:56 26° NW 10:25:56 26° NW 10:29:08 10° N
USA 59 Rocket 1.6 10:24:05 14° N 10:26:50 30° NE 10:31:09 10° ESE
COSMO-SKYMED 1 2.6 10:24:35 10° SSE 10:28:40 73° ENE 10:32:47 10° N
Cosmos 1606 Rocket 3.8 10:25:58 10° N 10:30:24 72° E 10:34:47 10° SSE
Cosmos 2026 Rocket 4.5 10:26:58 10° S 10:32:53 61° E 10:38:51 10° NNE
Meteor 2-3 Rocket 3.8 10:34:29 10° S 10:40:15 82° E 10:45:59 10° N
Cosmos 841 Rocket 3.4 10:36:07 10° SSW 10:41:18 74° WNW 10:46:34 10° NNE
COSMOS 2455 3.1 10:38:20 10° NNW 10:44:22 69° ENE 10:50:20 10° SE
Cosmos 1484 Rocket 2.3 10:46:39 10° NNE 10:50:04 87° WNW 10:53:27 10° SSW
IRS-1D 4.0 10:45:39 10° N 10:50:08 34° WNW 10:54:39 10° SW
Cosmos 1697 Rocket 3.9 10:49:33 19° W 10:50:30 20° W 10:54:26 10° SW
Cosmos 1092 Rocket 4.2 10:46:15 10° S 10:52:32 78° E 10:58:48 10° N
NOAA 12 4.5 10:47:53 10° N 10:52:46 39° WNW 10:57:36 10° SW
Cosmos 220 Rocket 3.9 10:53:53 10° SSW 10:57:48 53° WNW 11:01:49 10° N
Cosmos 1933 3.5 10:55:01 10° NNW 10:58:37 41° W 11:02:12 10° SSW
Cosmos 1726 Rocket 3.4 10:54:22 10° N 10:58:45 75° W 11:02:58 10° S
Cosmos 2322 Rocket 4.2 10:55:13 10° N 10:59:49 25° NE 11:04:22 10° ESE
Cosmos 1898 Rocket 3.4 10:54:44 10° NNW 10:59:58 77° WSW 11:05:13 10° SSE
Nadezhda 4 Rocket 4.3 10:54:47 10° SSW 11:00:45 43° WNW 11:06:43 10° N
COSMOS 2406 3.2 10:57:05 10° SW 11:02:41 62° WNW 11:08:19 10° NNE
Cosmos 2237 4.3 10:57:32 10° NNW 11:03:16 81° ENE 11:08:57 10° SSE
Cosmos 1892 Rocket 3.7 11:05:22 10° SSW 11:09:34 52° W 11:13:51 10° N
Delta 2 Rocket 3.2 11:07:57 13° WSW 11:10:27 44° S 11:13:18 10° ESE
SMAP 3.6 11:05:56 10° NNE 11:10:33 63° E 11:15:09 10° S
CZ-2D R/B 4.4 11:07:48 10° NNE 11:10:49 39° E 11:13:47 10° S
Meteor 2-2 Rocket 4.5 11:11:33 10° N 11:17:14 77° E 11:23:00 10° SSE
NOSS 3-1 (C) 4.3 11:11:16 10° NNW 11:18:48 80° ENE 11:27:59 10° SE
Cosmos 405 Rocket 3.9 11:15:46 10° SSE 11:18:48 38° E 11:21:51 10° NNE
CZ-3 R/B 3.9 11:10:50 10° W 11:21:06 21° SW 11:26:15 10° S
Cosmos 2082 Rocket 3.2 11:18:05 10° WSW 11:22:30 23° NW 11:26:56 10° N
Helios 1A Rocket 3.8 11:20:23 10° SW 11:22:54 20° W 11:25:26 10° NW
ARIANE 5 R/B 3.2 11:19:36 10° NNE 11:24:45 61° E 11:29:54 10° S
SL-16 R/B 2.6 11:19:08 10° NNW 11:24:47 67° ENE 11:30:24 10° SSE
BREEZE-M DEB (TANK) 3.7 11:23:16 10° NW 11:26:22 41° NNE 11:34:09 10° E
MOS 1 Rocket 4.5 11:21:47 10° NNE 11:27:05 56° E 11:32:16 10° S
Cosmos 858 Rocket 4.5 11:22:19 10° NNW 11:27:31 85° WSW 11:32:41 10° SSE
Cosmos 1937 Rocket 3.6 11:24:08 10° NNW 11:29:08 56° WSW 11:34:07 10° S
IGS 5A 4.0 11:30:03 10° N 11:33:38 33° WNW 11:37:14 10° SW
IRIDIUM 103 4.3 11:29:43 10° S 11:34:56 83° W 11:40:11 10° N
BREEZE-M DEB (TANK) 3.9 11:34:25 10° WNW 11:39:36 35° SW 11:42:29 10° SSE
